TIMESTAMP,CO2_1_1_1,H2O_1_1_1,TAU_1_1_1,TAU_SSITC_TEST_1_1_1,H_1_1_1,H_SSITC_TEST_1_1_1,LE_1_1_1,LE_SSITC_TEST_1_1_1,FC_1_1_1,FC_SSITC_TEST_1_1_1,WD_0_0_1,WS_0_0_1,WS_MAX_0_0_1,U_SIGMA_0_0_1,V_SIGMA_0_0_1,W_SIGMA_0_0_1,USTAR_0_0_1,MO_LENGTH_0_0_1,ZL_0_0_1,FETCH_MAX_0_0_1,FETCH_70_0_0_1,FETCH_80_0_0_1,FETCH_90_0_0_1,PA_0_0_1,RH_0_0_1,TA_0_0_1,VPD_0_0_1,T_SONIC_0_0_1,T_SONIC_SIGMA_0_0_1
[yyyymmddHHMMSS],[mmolCO2 mol-1],[mmolH2O mol-1],[kg m-1 s-2],[#],[W m-2],[#],[W m-2],[#],[umolCO2 m-2 s-1],[#],[Decimal degrees],[m s-1],[m s-1],[m s-1],[m s-1],[m s-1],[m s-1],[m],[#],[m],[m],[m],[m],[kPa],[%],[deg C],[hPa],[deg C],[deg C]
20240414003000,417.91454369063206,7.1270288813968774,6.2842528406550233E-002,0,-15.882801302856523,0,4.7617057518450050,0,0.35572090972394271,0,162.51345704986431,1.7355949908063093,3.9370215018165235,0.51330144606020522,0.56725563743359997,0.29575789863350477,0.23671323827847723,69.406163588931918,0.27375090363055160,104.78131768339846,191.57366701251209,229.26475081670421,287.01226247749020,93.511592792481537,35.517666666666663,16.545999999999992,12.102825445703608,16.782623555855139,0.21088713881865301
20240414010000,418.57378504905006,7.1499568807092908,0.10748516110074116,1,-22.038310090436660,0,6.2782198393395365,0,0.97109868529241139,0,127.46657339094730,1.9084832128406770,4.0031891848266454,0.56177115037278436,0.47958395128910186,0.34118547597221066,0.30916081834656867,111.43584937746603,0.17050168420793749,115.72042770781727,211.57384898734972,253.19986052283312,316.97617958612267,93.511144071614595,37.459333333333333,15.762000000000000,11.165694339740648,16.022896033392954,0.29173829039066890
20240414013000,419.31562654372249,7.1979444256399407,0.13508564622066968,1,-33.396318176494468,0,8.6578494868834657,0,1.8758121840533546,0,126.54416958669376,2.4021461871729834,5.0568186307086700,0.64427965655200581,0.54988583583120854,0.38647286988824969,0.34627047866341670,103.29142371711626,0.18394557182245072,114.68115649370215,209.67372974939397,250.92590309222501,314.12945472060625,93.471818814069621,39.318666666666665,15.104666666666674,10.386327072633431,15.449336629444360,0.21113674767934859
20240414020000,420.81845001113561,7.2864180503803606,8.0563444534276635E-002,0,-28.993020009454714,0,5.2714876922585718,0,1.3644474239962159,0,114.16512371673434,2.0110894176846674,4.5260876546583981,0.64165638034086403,0.53686704559972098,0.31970365336781603,0.26713902924282551,54.609784097507735,0.34792300160122985,108.45427993426483,198.28901343832334,237.30130536499141,297.07307511969083,93.422481927083339,41.748666666666665,14.356333333333339,9.5004729455084913,14.754614368014927,0.40487315773837312
20240414023000,421.39592382107264,7.3328419846541228,0.13559899897256447,0,-41.915847202661226,0,6.4145425096788307,0,1.7874151777034344,0,110.59417129806290,2.2945020432143575,4.8698624705721736,0.67827112835609327,0.50519561935313229,0.38134326020290521,0.34626572143951861,82.248442437747400,0.23100741408423403,115.91233117989114,211.92470973877403,253.61975123120175,317.50183292695607,93.400698952690959,43.626333333333335,13.772333333333336,8.8525115460818569,14.230531589931957,0.31522328810348277
20240414030000,421.40511944317120,7.3278769185156749,9.8595650217257996E-002,0,-26.282792055580309,0,8.5360968060624565,1,1.2811142760706544,0,127.76875695377420,1.9127786951641497,4.2600959230803337,0.73881666855604833,0.73262626952927024,0.32901718953025488,0.29522872539153044,81.291139408727830,0.23372781016721811,114.81719119510177,209.92244456959523,251.22355120935447,314.50207484304184,93.389476543185765,43.881666666666668,13.670333333333360,8.7541550992583765,14.056827099270265,0.28006713031583563
20240414033000,422.34927976058162,7.9393623437061889,1.1676565022708224E-002,2,-6.2426425489017348,0,1.1290473823203704,2,0.26334677253315963,0,206.74202144878137,0.50487192611986176,2.3432823883743930,0.69034374490805517,0.53696892126314699,0.15106886354876151,0.10148460539550347,13.909014134916253,1.3660206119356568,29.959991897520222,214.00000000000000,365.00000000000000,866.00000000000000,93.445742552517359,49.265999999999998,13.133666666666670,7.6421124508310632,13.536075895521435,0.25521705708016507
20240414040000,421.71663730658639,8.1769363583385140,2.4061663523686827E-002,2,-29.782945211768315,0,35.574717628750058,1,0.84567427752476065,0,134.04718342516668,1.4851251547783990,4.8943971684278909,1.2592921981459597,0.64132656014711753,0.22289761239240269,0.14568924892828622,8.6242627134591565,2.2030868760929914,136.68267670811630,1050.0000000000000,1829.0000000000000,4502.0000000000000,93.423560608072933,50.942999999999998,13.069000000000017,7.3583422135168863,13.539565126207208,0.52477689135012695
20240414043000,426.98262599118914,9.5480697434085240,0.12321394593676019,0,-112.05002780937082,1,50.848470235933441,0,7.7815362342656442,1,42.569288042344198,1.2575885146794736,5.3315230209009572,0.90814552502835988,2.0345740029791748,0.38182663644858644,0.32828570797109441,26.218883389627209,0.72466854204465614,110.95924760380929,202.86889325671248,242.78225178997613,303.93456965100870,93.359470991262498,71.342333333333329,10.308333333333337,3.5816567411604754,10.855530663024297,1.0875366105760949
20240414050000,427.73825646608708,9.3845424516383655,0.14641939912442684,1,-23.797577161114809,1,42.376414613180543,1,-0.67231272523462016,2,62.224996389264689,1.8691526783005952,5.5275480420414000,1.2319296765200087,1.1844622098033928,0.33995344780977060,0.35713709863521514,158.87430813032651,0.11959139412531113,130.25287336884219,238.14379454152478,284.99729929239788,356.78279970426996,93.309269201388886,76.420333333333332,9.0193333333333499,2.7026082879892828,9.5412442788019121,0.45250122434509349
20240414053000,427.93876765947044,9.3086583478342924,1.3836012727629155E-002,1,-2.4150814214396776,2,3.4121192939491558,1,-0.22109972900372285,2,45.036211108405382,1.7173438476473155,4.7484254771412262,0.62111736290904451,0.86000638499562998,0.22795916552239087,0.10965451395736672,45.328990116874763,0.41915780499435418,285.79274520638972,2920.0000000000000,5512.0000000000000,-9999.,93.356275717664928,78.545333333333332,8.5013333333333208,2.3743704159697940,9.0607166052924413,0.39285944090497843
20240414060000,428.24362552709039,9.4809323894895599,9.8017898143054408E-002,0,-17.037317372874689,1,8.5664467550455878,1,0.60944396994942474,1,103.16950755535247,2.8301168462694974,5.1308230521198945,0.67746773573060504,0.67481763929811511,0.35160499055538219,0.29194668216904751,121.22016104729602,0.15673960367522397,107.90801671402241,197.29027005000188,236.10606461179125,295.57677552911161,93.303490411892355,80.004333333333335,8.4920000000000186,2.2115043460554706,9.0866470413208162,0.34448075753883750
20240414063000,427.57078348707574,9.3953059174041282,0.16617728937868725,0,-38.281346712922122,0,13.020649388409121,0,2.0289666586288440,0,117.74846451779931,3.1976240873621569,6.0449678548487373,0.92986508826325243,0.63041734275843209,0.43888862166448184,0.38012395808129956,119.00987256004802,0.15965062050136467,111.61219176609666,204.06268343123349,244.21091373061284,305.72308486949277,93.224430484157992,80.539000000000001,8.2476666666666461,2.1169766286756326,8.8663223614163371,0.33149787040315226
20240414070000,427.91110113475042,9.4416461168732813,9.7477947697225495E-002,1,-20.211752977477186,0,2.7999581617412961,1,0.81232117067397280,1,132.68276221852997,2.5121812147127098,4.2223006815089157,0.56248761544666237,0.56466192538346061,0.32783005014385275,0.29091777116052586,101.02288122169251,0.18807620382856546,113.80257606782928,208.06740452204338,249.00354205627391,311.72288681925443,93.199994926953693,83.693333333333328,7.7516666666666652,1.7149616585349510,8.3780348405479117,0.19150436047961117
20240414073000,428.70174102024282,9.4270969593202061,0.12095689435832303,0,-39.124431356918599,0,2.3698587122681181,0,2.2448061154460537,0,148.02184984939240,2.5961116412351282,4.9345649476683464,0.68470350197989394,0.55899417141538643,0.35161339834457350,0.32393995379067714,72.049360266592728,0.26370810135853168,117.26655855468732,214.40066928857016,256.58284244341502,321.21127151145282,93.192306354817703,84.930000000000007,7.5129999999999768,1.5592890939458539,8.1483147532145495,0.27086684548817863
20240414080000,428.81315611960468,9.4208725704204639,7.2556858195686844E-002,0,-43.457212637799223,0,-0.32132246054080549,1,1.9800232597101397,0,162.05560244863193,2.2208300397233858,4.6548661416672470,0.68249301204231549,0.46698283912327909,0.32086545522655585,0.25080440176295260,30.104204851649900,0.63114106795478708,102.81693491773979,187.98214880913838,224.96662081381422,281.63151374853226,93.192545071397575,86.023333333333341,7.3163333333333185,1.4268427789988618,8.0058636203341962,0.35914851439167444
20240414083000,427.71899847878984,9.4253365638121593,6.9351215053175597E-002,0,-43.296163469972193,0,0.98864400232871230,0,1.8859598688023309,0,176.62813817718128,2.4842657993730453,4.4044230351364497,0.67746918908050346,0.45257417091206359,0.30450533526144741,0.24531756678630998,28.282170407414419,0.67180134078461617,105.33237908795522,192.58118301206255,230.47049014498933,288.52170503826954,93.219549076416470,84.073333333333338,7.6630000000000109,1.6648954571223999,8.3821794559272575,0.43909848393333395
20240414090000,427.95700001955782,9.4797472506837632,6.8105355293816019E-002,0,-41.061815436869779,0,0.93025635946611596,1,2.1338493473625539,0,196.87066344228435,2.4241180850712705,4.3081610774260577,0.56955482482070641,0.61106089809391118,0.31266484412862772,0.24310953888613554,29.024738221625199,0.65461400047507889,102.38427463192562,187.19110781674937,224.01994678061311,280.44639019539187,93.225584219835071,84.420000000000002,7.6879999999999882,1.6314375602668656,8.3732922753228536,0.47897533699567552
20240414093000,426.93630989534626,9.5182981616418658,4.3488279265808658E-002,0,-20.892259977367733,0,0.57506059151244715,2,0.62516990658760285,1,227.12730485106448,2.4607645758948351,4.8709340707112823,0.55709039290342133,0.48312262046103172,0.29764886397309182,0.19445892551355137,29.198622911931231,0.65071561961355928,219.10105234364266,2136.0000000000000,3979.0000000000000,-9999.,93.242565696614577,81.361999999999995,8.2923333333333176,2.0336101050374795,9.1045761455960132,0.85872788017939095
20240414100000,427.79848402546742,9.5954439511853522,0.10225518242764209,0,-61.203760911995509,0,-3.7304935701568960,2,2.6581399953895568,0,240.91315796628436,3.0552030938424006,5.5691932046795944,0.65737051915233946,0.71417638361874680,0.37736107054598456,0.29811963461859586,35.920151083167276,0.52895100457702937,103.69592447319549,189.58922205585156,226.88987703789553,284.03920231919619,93.265166176215288,82.385666666666665,8.2306666666666501,1.9138838200271324,8.9143110605876359,0.76848438242609418
20240414103000,428.59982405612374,9.4424393037520051,0.14397848673041508,0,-53.545722298574113,0,-3.8925336697299517,2,2.1331898773182725,1,265.39178448974940,3.1068209728758198,6.6395029007166579,0.86148218495146178,0.81320129475931335,0.47948707762832665,0.35339013647664080,68.397621637193552,0.27778743683198626,98.092750663749030,179.34483329155378,214.62996014042977,268.69124117823179,93.287054463107637,83.843333333333334,7.7403333333333535,1.6978733454604698,8.4734932835897325,0.43118321746318905
20240414110000,427.21690817941584,8.9175605032554195,0.22410576623181705,0,-65.397185936738353,0,9.5230291066909736,1,3.9507742545978091,0,279.52211165280210,3.6896750121790465,7.1634614903842149,1.0218330043082271,0.77422981336345498,0.56346258717357378,0.44091623556671988,108.78252324463291,0.17466040898198615,102.90766035843373,188.14802385012212,225.16513087279515,281.88002478631586,93.312527705078125,78.325666666666663,7.9039999999999964,2.3032662612500827,8.5407421722412096,0.36272683892546859
20240414113000,423.99506017244653,8.1988508640436049,0.15083650514868402,0,-60.511138293912623,0,1.4512878295076928,2,2.1172762402620595,1,288.02720204162353,3.3916823828644103,7.2974171977766709,1.0923149691812872,0.88870348515005104,0.58836856453873110,0.36169361072766204,64.912492562067627,0.29270174738449145,84.841434033996308,155.11720020169210,185.63567115569737,232.39383195684050,93.355361522569439,71.307666666666663,8.0553333333333512,3.0806217196902219,8.6272470728556527,0.32675957058316207
20240414120000,422.36679771014946,8.0128401734220596,0.25598950746245325,0,-69.382003017620548,0,24.190926633354728,0,3.5980968593371792,0,283.15734606422507,3.2295164335228019,7.4418871478850326,1.0157161210425736,0.87974321326071658,0.64097352491728976,0.47108569768619885,125.12267223132001,0.15185097681476808,97.872968750984853,178.94300185917496,214.14907054505218,268.08922446925436,93.402093704644102,69.569999999999993,8.0880000000000223,3.2744587217887657,8.6143063227335688,0.28771258314549569
20240414123000,422.50408651333458,7.7408894692772074,0.20504873233801199,0,-23.730617050171656,0,30.826174669097071,0,2.0870376420735277,0,303.13592636994571,3.3590129491863583,7.8577519115427661,1.0938519103504536,0.95657940285139120,0.63210600887529134,0.42132461767905455,261.76698295406436,7.2583638263249484E-002,90.514140759148290,165.48871731228564,198.04772821464644,247.93225452637367,93.435795362847216,68.427666666666667,7.8293333333333521,3.3380710832263674,8.2128443018595476,0.29144088391824957
20240414130000,421.90189612053501,7.7584184540392620,0.17469863315145365,0,1.6903343810653899,1,15.223633317292229,0,0.98077600167514567,0,299.95906061394305,2.8307431972785109,6.1688001600843920,0.90580801645142028,0.91770846095494840,0.55457775029697509,0.38889783603882094,-2890.7371271111288,-6.5727180177699990E-003,94.265628563907981,172.34763349505477,206.25609909378463,258.20816082633223,93.465719994278871,68.179000000000002,7.9206666666666479,3.3853629073119986,8.3303507889968955,0.22240380337314644
20240414133000,421.39561905941309,7.8159463354708532,0.22944353299265191,0,31.860124452692933,0,29.436610612449709,1,0.80702920690335200,1,315.28016859052400,2.7915166157197246,6.4207015843650659,1.1257040864338947,0.82122210993775457,0.59978476564057159,0.44607549289847648,-231.46707769164877,-8.2085107694283177E-002,98.806438776557528,180.64968278091678,216.19153171598754,270.64614348800598,93.474438291015630,66.341666666666669,8.4326666666666483,3.7076364358779221,8.8286898430718566,0.24590668279466854
20240414140000,420.39516323932190,7.9724289223831786,0.48219233509639470,0,109.00812131266136,0,48.524850761900041,0,1.2611299114843747E-002,2,318.50699567859931,2.3530079445609555,7.5443172395142364,1.2591242568623171,0.90450097387493700,0.66271569548577447,0.64769292663106526,-207.11925875796510,-9.1734588632353939E-002,122.93864385665481,224.77105023938967,268.99353980929385,336.74799190660912,93.487062068576392,63.618000000000002,9.3483333333333576,4.2634895696173469,9.7238407355414438,0.37650786425816751
20240414143000,419.40498350731929,7.8920683083960643,0.59858558531040096,0,140.80589391086028,0,60.079067576448210,0,-1.1372609712488164,0,320.95268762150374,3.0201196697531274,7.6568314930133701,1.4321463638177736,1.1703057292940646,0.70783136448723638,0.72257279488077486,-222.66018864631499,-8.5331823868076334E-002,127.29646474794319,232.73853668435279,278.52858615948264,348.68473846728460,93.501005373263894,59.774666666666668,10.127999999999986,4.9671363780420883,10.460708553738073,0.38595543540976923
20240414150000,418.21576055013566,7.7398673668185261,0.57666229047023287,0,203.32021959753226,0,60.740708106934761,0,-1.3951133187804037,1,307.62770725775692,2.8057651538141402,7.9972047412674216,1.3392448506541410,1.0852428133138627,0.78191738847600345,0.71002087404333047,-146.34879793883945,-0.12982682651032282,115.91592262773436,211.93127605086497,253.62760942971511,317.51167045900706,93.543890119357641,55.641999999999996,10.916999999999973,5.7734398962042954,11.150378431532204,0.46003173021113053
20240414153000,418.16856552368444,7.6925689050475290,0.50690567273014531,1,263.74704487817473,0,70.330290733078641,0,-2.0629320863110676,1,306.69513574177154,2.6082617587355630,6.7730310360774988,1.2533326046337483,1.3558044611511162,0.84374450172381710,0.66630050652916850,-93.258240136630420,-0.20373534791310188,103.66263642431014,189.52836088581049,226.81704176151609,283.94802119611745,93.575911717013895,53.087333333333333,11.538333333333355,6.3628421787395411,11.752332160101957,0.51510669552883237
20240414160000,418.26115973843588,7.5603031271338201,0.64033790390432233,0,203.75896176064370,0,50.232295859353123,0,-1.9837238142958897,0,296.13446458479712,3.1064415478595797,8.4624069976440826,1.6132643512470612,1.4361002280642505,0.86304919799276358,0.74935300613812994,-171.74598524166254,-0.11062849575939279,111.83445361256823,204.46904897336367,244.69722949733500,306.33189450110069,93.601593633246523,50.648333333333333,11.992000000000019,6.8972440960632682,12.166878916422661,0.53252339447769803
20240414163000,417.91924684910629,7.7135101053922428,0.72726104433839145,0,192.68720239858291,0,69.941642579132989,0,0.27460177825537496,2,272.31185439751766,3.0472831714177477,13.169666595181630,1.8270894563169184,1.5907478452523949,0.98383953508421085,0.80068933010807430,-221.56868604406810,-8.5752189712498747E-002,106.19075690774588,194.15057143220415,232.34864725650343,290.87293487165471,93.601922097972363,46.893666666666668,13.473333333333358,8.1787215791302774,13.685792292166127,0.63636833638922663
20240414170000,417.33093185496472,7.2629060376904189,1.1351549140101673,0,271.13653076876449,0,128.22165941432783,1,2.3472525932933825,1,272.60045796309765,4.7185194132864403,13.985865763659298,2.1129225904610491,1.8312711183286654,1.2220380208982677,1.0017901221200722,-308.36702344494228,-6.1614889256770271E-002,106.80916535901424,195.28121931238229,233.70174399757872,292.56685142718061,93.596074590277766,41.741666666666667,14.337666666666678,9.4901441719817523,14.446527949015319,0.49058705055307411
20240414173000,416.80265839240241,6.8241261289026962,0.95641470055359823,0,255.67585015805622,0,75.830326575020990,0,1.7374054163323625,1,285.01064412281193,4.2339623628065430,10.099297108670733,1.8697314828733262,1.9589766522945111,1.1419221883702173,0.92020490260751520,-253.45916981494960,-7.4962764274308522E-002,105.35455684216855,192.62173101999647,230.51901575438046,288.58245334296896,93.609536612847222,37.971666666666664,14.840666666666664,10.437922601385667,14.883229570176866,0.48402140217736744
20240414180000,416.58974937853452,6.5065452808067104,0.87975050339837302,0,235.85162028339545,0,86.112858112308487,0,0.47766763774962817,0,299.98477047582810,4.5414671903494161,11.961643057097961,1.9786985409777482,1.7006175679426561,1.1280779292244958,0.88243269268245494,-242.33126462493482,-7.8405070965180707E-002,102.87951059630022,188.09655710703589,225.10353832611057,281.80291822670426,93.634144454861115,36.140999999999998,14.872000000000014,10.767704553687350,14.839278001573348,0.43195677653856002
20240414183000,416.17845502586653,5.9654938301224085,1.3296134123840877,0,286.34429651098196,0,133.93289454918150,0,2.3434940879339687,0,294.08719919846527,5.3113256938270306,15.545068854393024,2.8810249879713412,2.1306580160638373,1.2199658177797457,1.0850662145300796,-371.13825459659137,-5.1193860413694205E-002,114.00968949053522,208.44607391418808,249.45671260515888,312.29020257128485,93.660532647135426,32.590666666666664,15.134000000000015,11.559692754629625,14.967690427992125,0.51227375235958639
20240414190000,416.17930853261237,5.3162032458359452,1.3359175596867099,0,273.83446527838817,0,98.729318891859052,0,2.7744501893094529,0,304.69119389699750,5.5175853433149653,14.882347479660533,2.4670035115997004,2.3424520566252016,1.3499796471482444,1.0869684487142479,-390.17780253924792,-4.8695748134182475E-002,105.28504170692980,192.49463518206477,230.36691449710617,288.39204061785330,93.688171516927099,29.423999999999999,14.936333333333323,11.949731498625354,14.771682083129917,0.44267371815227541
20240414193000,416.85045850709537,5.9501283473899953,0.98724489046119546,0,280.11143732811377,0,66.141435241673420,0,0.93047072347079318,1,299.42772878465951,5.1841456631337319,12.498922400687084,2.2426295762652755,2.1411015078397684,1.2521028210031739,0.93374394554150286,-241.87783919834098,-7.8552049509669666E-002,99.020506546322167,181.04106693745996,216.65991859046136,271.23250827403876,93.719358146701381,33.775666666666666,14.549666666666667,10.936687017136370,14.439394764370434,0.54221027731486959
20240414200000,417.83844912504355,6.5883093898156373,1.2112621135919635,0,272.79889597567092,0,94.463726885041154,1,-0.80685869262979215,2,299.15663987344368,4.5525626546269562,12.136276324390453,2.0817075988715485,1.8207399519963305,1.1925552908631412,1.0333736402986229,-336.76960868868235,-5.6418392603722271E-002,111.65495075295671,204.14086049649308,244.30447171102747,305.84020835897803,93.755448061961658,38.538333333333334,14.091666666666640,9.8536783737146614,14.018762491941118,0.45887592559429746
20240414203000,418.02818663470606,6.3608118407437626,0.87563114001155395,0,232.31122289035090,0,53.119207698549502,0,0.40222114142604948,0,306.93264716885915,4.5251173145343619,11.140229519951893,1.9040687705152326,2.0732034078492214,1.1523326320333183,0.87826231866619164,-242.79664554444278,-7.8254787900363068E-002,100.76089383318752,184.22304996590569,220.46793958570569,275.99969868387484,93.771844227430563,37.592666666666666,13.935666666666691,9.9045324074143757,13.881545643276638,0.39617772363436193
20240414210000,417.84769241848124,6.0006507520590491,1.2182234069514333,0,213.78051652667602,0,80.687455779830799,1,2.9082481221713641,0,289.86469920755439,5.8143716833760744,15.113397220482906,2.5133903841289738,2.0511563036130047,1.2780384716018927,1.0357136486432483,-432.78692318109574,-4.3901511303403279E-002,105.83066317799616,193.49220524821698,231.56075108334039,289.88658235801569,93.804531146267365,35.421999999999997,13.959333333333348,10.264792133733595,13.799700880262662,0.40115706618649083
20240414213000,417.67562823194589,5.7814602087677471,1.2774425261873374,0,236.12872734935559,0,9.5675710952037800,2,2.2140643921151781,0,283.16169402870537,5.0395052325255518,11.925946609465226,2.2619367601643452,1.7996991866089189,1.2892393207552344,1.0603890691444762,-420.60802061916326,-4.5172700159237869E-002,107.09279651585383,195.79978752660293,234.32233770583085,293.34376110758387,93.841610910156248,34.076666666666668,13.988666666666688,10.498603337437695,13.875992528279653,0.39191142484071734
20240414220000,417.15608911461771,5.4970590664567585,1.3203850827239760,0,182.27966448773267,0,58.383207723080730,0,2.5266439956890232,0,285.29795945359876,5.3057783294208845,13.086156286450557,2.3145841721057332,2.0214816254303232,1.2505196068421343,1.0776162543443026,-571.92000051815626,-3.3221429540470887E-002,111.16134740213501,203.23839614447664,243.22445237427544,304.48815230912123,93.863292652777773,32.707333333333331,13.846999999999980,10.618551297821266,13.720350701226153,0.30852445422037222
20240414223000,417.13124325749880,5.5968160158864899,0.79400342445398153,0,104.51946476330944,0,17.906404064220222,0,1.5318316094416300,0,301.00235800003196,5.3720324616272350,14.308949403850482,2.2802526666141860,2.1232961453451833,1.1129153580493505,0.83572066362049857,-465.24572645516378,-4.0838634123017678E-002,99.571283114913967,182.04806216602270,217.86503468888094,272.74117062498158,93.865615241102446,33.206666666666663,13.891000000000020,10.569924271500799,13.782913536071817,0.26354921981482565
20240414230000,417.03010351282620,5.6606750177208784,0.67034936289607505,0,81.828160940425121,0,27.018862318676401,0,1.8876324007634007,0,291.90445607163582,4.9301917352210403,12.486501719605929,1.8945662820895781,1.8032434109900957,1.1239747601906473,0.76774124905220686,-460.76518352774497,-4.1235754521491350E-002,92.304219131314028,168.76155149281925,201.96447483523195,252.83555651728491,93.877123181655591,33.775666666666666,13.805999999999983,10.422169675678179,13.761422318306927,0.17670913779052921